Weather History for Whiteman AFB, MO

Change the Weather History Date:

Saturday, December 17, 2011

  Actual Average Record
Temperature  
Mean Temperature 39 °F -  
Max Temperature 51 °F 39 °F 66 °F (2002)
Min Temperature 27 °F 22 °F 1 °F (2000)
Degree Days  
Heating Degree Days 26    
Moisture  
Dew Point 29 °F    
Average Humidity 76    
Maximum Humidity 94    
Minimum Humidity 46    
Precipitation  
Precipitation 0.00 in - - ()
Sea Level Pressure  
Sea Level Pressure 30.35 in    
Wind  
Wind Speed 8 mph (WSW)    
Max Wind Speed 12 mph    
Max Gust Speed 20 mph    
Visibility 10 miles    
Events      
Averages and records for this station are not official NWS values.
T = Trace of Precipitation, MM = Missing Value Source: NWS Daily Summary

Daily Weather History Graph

Daily Weather History Graph

Search for Another Location

Airport:

Trip Planner

Search our weather history database for the weather conditions in past years. The results will help you decide how hot, cold, wet, or windy it might be!

Date:

Astronomy

Dec. 17, 2011 Rise Set
Actual Time 7:26 AM CST 4:54 PM CST
Civil Twilight 6:56 AM CST 5:24 PM CST
Nautical Twilight 6:22 AM CST 5:57 PM CST
Astronomical Twilight 5:50 AM CST 6:29 PM CST
Moon No Moon Rise 11:45 AM CST (12/17)
Length of Visible Light 10h 27m
Length of Day
9h 27m
Waning Gibbous, 53% of the Moon is Illuminated
Dec 17
Waning Gibbous
Dec 17
Last Quarter
Dec 24
New
Jan 1
First Quarter
Jan 9
Full

Hourly Weather History & Observations

Time (CST) Temp. Windchill Dew Point Humidity Pressure Visibility Wind Dir Wind Speed Gust Speed Precip Events Conditions
12:55 AM 27.5 °F 19.3 °F 25.3 °F 92% 30.39 in 10.0 mi SSW 8.1 mph - N/A   Scattered Clouds
1:55 AM 29.1 °F 21.3 °F 26.4 °F 90% 30.38 in 10.0 mi SW 8.1 mph - N/A   Clear
2:55 AM 29.8 °F 22.2 °F 27.3 °F 90% 30.37 in 10.0 mi SSW 8.1 mph - N/A   Mostly Cloudy
3:55 AM 30.6 °F 21.2 °F 26.8 °F 86% 30.36 in 10.0 mi SW 11.5 mph - N/A   Clear
4:55 AM 30.6 °F 21.2 °F 27.0 °F 86% 30.36 in 10.0 mi West 11.5 mph - N/A   Clear
5:55 AM 29.8 °F 20.3 °F 26.8 °F 88% 30.38 in 10.0 mi West 11.5 mph - N/A   Clear
6:55 AM 28.0 °F 20.8 °F 26.4 °F 94% 30.39 in 10.0 mi West 6.9 mph - N/A   Clear
7:55 AM 28.8 °F 22.6 °F 26.8 °F 92% 30.39 in 10.0 mi West 5.8 mph - N/A   Clear
8:55 AM 33.1 °F 26.9 °F 28.6 °F 84% 30.39 in 10.0 mi West 6.9 mph - N/A   Clear
9:55 AM 38.8 °F 34.6 °F 29.1 °F 68% 30.40 in 10.0 mi West 5.8 mph - N/A   Clear
10:55 AM 43.2 °F 39.7 °F 28.8 °F 57% 30.39 in 10.0 mi WNW 5.8 mph - N/A   Clear
11:55 AM 47.5 °F - 30.7 °F 52% 30.37 in 10.0 mi West 8.1 mph - N/A   Clear
12:55 PM 49.8 °F - 31.3 °F 49% 30.35 in 10.0 mi WSW 6.9 mph - N/A   Clear
1:55 PM 50.7 °F - 30.7 °F 46% 30.33 in 10.0 mi West 10.4 mph - N/A   Clear
2:55 PM 51.8 °F - 32.0 °F 47% 30.31 in 10.0 mi West 11.5 mph 19.6 mph N/A   Clear
3:55 PM 51.4 °F - 32.5 °F 49% 30.31 in 10.0 mi WSW 9.2 mph - N/A   Clear
4:55 PM 47.3 °F - 32.4 °F 56% 30.31 in 10.0 mi WSW 6.9 mph - N/A   Clear
5:55 PM 39.0 °F 33.4 °F 31.5 °F 74% 30.32 in 10.0 mi SW 8.1 mph - N/A   Clear
6:55 PM 37.2 °F 33.6 °F 32.0 °F 81% 30.33 in 10.0 mi SW 4.6 mph - N/A   Clear
7:55 PM 37.4 °F 33.8 °F 32.2 °F 81% 30.34 in 10.0 mi WSW 4.6 mph - N/A   Clear
8:55 PM 34.9 °F 29.0 °F 31.1 °F 86% 30.33 in 10.0 mi SW 6.9 mph - N/A   Clear
9:55 PM 36.1 °F 32.3 °F 31.1 °F 82% 30.34 in 10.0 mi WSW 4.6 mph - N/A   Clear
10:55 PM 32.7 °F 28.3 °F 30.2 °F 90% 30.33 in 10.0 mi SSW 4.6 mph - N/A   Clear
11:55 PM 30.2 °F 24.3 °F 28.6 °F 94% 30.32 in 10.0 mi SW 5.8 mph - N/A   Clear